CAPE
9 13 6 12 11 33 60 2 0 0 13 31 13 3 0 1 0 0 0 0 44 19 0 0 15 0 0 0 0 0 0 1 0 1 0 0 0 0 0 1 9 0 1 0
16 19 17 19 33 53 45 0 0 8 15 14 24 0 0 21 9 0 0 4 5 70 3 2 1 0 0 0 0 0 2 1 0 1 0 0 0 4 0 8 5 1 0 0
8 5 25 32 19 60 21 0 0 3 19 15 3 13 0 0 14 5 2 7 2 18 39 59 11 1 0 0 0 0 0 6 0 0 0 0 0 0 0 1 10 4 0 7
1 1 6 17 26 29 0 0 0 0 2 5 1 0 0 0 0 10 7 12 0 4 41 85 15 38 11 0 1 0 0 1 0 0 0 0 0 0 0 3 0 3 0 0
1 0 0 3 15 18 0 0 0 1 0 2 12 4 11 0 0 0 0 32 3 3 99 37 0 0 0 0 0 2 2 0 0 0 6 1 2 0 0 1 0 3 24 1
0 8 6 3 1 0 0 0 0 0 1 1 12 2 0 0 0 1 0 7 11 0 0 36 77 7 2 0 0 3 5 1 4 0 6 4 0 0 0 0 0 0 1 0
0 23 16 1 1 0 0 6 0 4 0 1 0 0 16 0 0 0 1 0 0 1 0 0 50 108 14 0 0 0 2 1 0 0 0 0 0 0 0 0 0 0 0 0
1 17 5 2 6 6 0 6 0 0 0 0 4 0 3 1 0 3 0 2 4 0 0 0 0 0 0 0 0 0 0 0 0 0 0 0 0 0 0 0 0 0 0 0
9 0 16 6 1 3 0 0 7 0 0 0 0 1 0 8 7 1 0 0 0 30 10 0 0 0 0 0 0 0 4 0 0 0 0 0 0 0 0 0 0 0 0 0
4 4 6 4 6 10 1 3 2 0 0 5 13 7 6 26 4 24 2 0 0 0 6 0 0 0 0 0 0 0 0 0 0 1 0 0 0 0 0 0 0 0 0 0
3 4 4 0 0 2 3 0 0 6 19 13 3 0 2 0 0 7 6 67 2 0 0 0 0 0 0 0 0 1 0 0 0 0 0 0 0 0 0 0 0 0 0 0
9 4 2 10 4 0 0 14 3 34 12 2 2 3 0 0 0 1 0 2 6 0 0 0 0 0 0 0 1 0 0 0 0 0 0 0 0 0 0 0 0 0 0 0
7 6 1 0 0 0 1 4 11 0 0 0 5 0 1 0 0 0 0 0 3 3 1 1 1 0 0 0 0 0 0 0 0 0 0 0 0 0 0 0 0 0 0 0
3 6 1 6 0 4 2 3 5 11 2 1 0 0 1 2 2 2 1 1 0 20 1 0 0 0 0 0 0 0 0 0 0 0 0 0 0 0 0 0 0 0 0 0
1 5 2 0 11 10 11 6 1 4 1 1 1 0 0 0 2 2 3 4 2 2 1 1 0 0 0 0 0 0 0 0 0 0 0 0 0 0 0 0 0 0 0 0
0 0 6 3 2 1 0 0 0 0 12 0 1 0 0 0 0 1 4 5 1 2 0 0 0 0 0 0 0 0 0 0 0 0 0 0 0 0 0 0 0 0 0 0
0 4 6 4 4 0 0 0 0 0 1 0 0 0 0 0 0 0 0 1 0 0 1 1 1 0 0 0 0 0 0 0 0 0 0 0 0 0 0 0 0 0 0 0
0 0 0 1 5 3 0 1 0 0 2 3 1 0 1 0 0 0 0 0 2 2 1 0 1 1 0 0 0 0 0 0 0 0 0 0 0 0 0 0 0 0 0 0
0 0 0 0 9 1 0 0 0 0 1 0 0 4 2 0 1 2 2 1 0 0 0 0 0 0 0 0 0 0 0 0 0 0 0 0 0 0 0 0 0 0 0 0
0 0 35 6 14 0 0 0 5 12 6 8 1 0 0 5 0 0 0 0 0 0 0 0 0 0 0 0 0 0 0 0 0 0 0 0 0 0 0 0 0 0 1 0
28 26 22 2 0 0 11 2 5 6 5 6 2 1 1 0 1 1 0 0 0 0 0 0 0 0 0 0 0 0 0 0 0 0 0 0 0 0 0 3 1 0 0 0
0 0 0 16 31 18 3 0 0 1 3 12 3 1 2 5 3 0 2 0 0 0 0 0 0 0 0 0 0 0 0 0 0 0 0 5 14 10 2 0 0 0 0 0
22 32 20 20 17 3 0 0 0 0 1 3 2 7 0 4 10 4 1 12 0 0 6 0 0 0 6 1 0 6 10 7 11 21 17 5 0 0 0 0 0 0 0 0
37 26 12 1 7 0 3 3 0 0 3 6 3 8 14 15 4 9 0 0 1 7 0 2 0 0 0 3 5 6 5 1 0 0 0 0 0 0 0 0 0 0 0 0
2 10 6 1 0 0 2 5 1 6 12 18 5 7 0 1 0 1 0 0 0 0 1 4 1 0 0 0 0 0 0 0 0 0 0 0 0 0 0 0 0 0 0 0
2 1 2 4 12 0 3 12 13 8 7 26 10 4 1 0 0 0 0 0 0 0 5 2 0 0 1 1 0 0 0 0 0 0 0 0 0 1 1 0 0 1 1 1
2 0 0 1 13 3 0 4 9 3 15 6 11 7 11 0 4 2 0 5 19 4 3 2 0 0 0 0 0 0 0 0 1 0 1 1 1 0 0 0 2 0 1 0
CIN
0 -0 -1 -1 -1 -0 0 0 0 0 -0 -0 -1 -0 0 -1 0 -0 0 -1 -38 -20 0 0 -1 -0 0 0 0 -0 0 0 -0 -3 -0 0 0 0 0 -1 -0 -0 -3 -0
0 0 0 -0 -0 -0 0 0 0 -1 -3 -0 -0 0 -1 -1 -2 -1 0 0 -65 -10 -5 -3 -1 0 0 0 0 0 -0 -1 0 -1 0 0 -0 -0 0 -5 -7 -0 -0 0
0 -0 0 -0 -0 -0 -8 0 0 -0 -0 -0 -1 -1 -0 0 -1 -12 -1 -2 -0 -30 -2 -3 -11 -0 0 0 0 0 -1 0 0 -0 0 0 0 0 0 -0 -1 -1 -0 -2
0 0 -0 -0 0 0 -0 0 0 0 -0 -0 -0 -0 0 0 -0 -11 -17 -0 0 0 -1 -2 -4 -6 -15 0 -28 0 0 0 0 -1 0 0 0 0 0 -1 -1 -2 0 0
0 0 0 -5 0 0 0 0 0 -0 -0 -0 0 -0 0 0 -0 0 0 -0 -3 0 -6 -1 -1 0 0 0 0 -3 -3 -0 -0 0 -20 -1 0 0 0 0 -0 -12 -2 -12
-0 -2 -2 -3 0 0 0 -0 0 0 -4 -0 0 -1 0 0 0 -1 0 -12 -6 0 0 -10 -4 -8 -39 0 0 0 -0 -3 -0 -0 -3 -14 0 0 0 0 0 0 -0 0
-1 -0 -3 -6 -0 -0 -0 0 0 -1 0 -0 0 0 -4 -2 0 0 -3 0 0 -2 0 0 -2 -10 -23 0 0 0 -0 0 -0 0 0 0 0 0 0 0 0 0 0 0
-2 -2 -1 0 -0 -0 0 -1 0 0 0 0 -1 -1 -5 -5 -2 -6 0 0 0 0 0 -0 0 0 0 0 0 0 0 -0 0 0 0 0 0 0 0 0 0 0 0 0
-0 0 0 -0 0 -1 -0 0 -4 -0 0 0 0 -7 -20 -27 -2 -11 -8 0 0 -8 -0 0 0 0 0 0 0 0 -0 0 0 0 0 0 0 0 0 0 0 0 0 0
0 -1 -1 0 0 -0 -0 -2 -8 0 -2 0 -6 -2 -5 -8 -1 -6 -9 0 0 0 -6 0 0 0 0 0 0 0 0 0 0 0 0 0 0 0 0 0 0 0 0 0
-0 -1 -3 0 0 -2 -0 0 0 -4 -2 -0 -3 0 -0 0 0 -8 -5 -2 0 0 0 0 0 0 0 0 0 0 0 0 0 0 0 0 0 0 0 0 0 0 0 0
-0 0 0 -0 -3 0 0 0 -7 -4 -0 -3 0 -0 0 0 0 -0 0 -1 -4 0 0 0 0 0 0 0 0 0 0 0 0 0 0 0 0 0 0 0 0 0 0 0
-0 0 0 0 -1 0 -10 -1 -0 -1 0 0 -0 -0 -0 0 0 -0 0 -0 -0 0 -1 0 0 0 0 0 0 0 0 0 0 0 0 0 0 0 0 0 0 0 0 0
-0 0 0 -10 0 -8 -4 -5 -2 -4 0 0 0 0 0 -0 0 0 0 0 0 -0 -1 0 0 0 0 0 0 0 0 0 0 0 0 0 0 0 0 0 0 0 0 0
-0 0 0 -1 -11 -7 -3 -1 -0 -0 -0 -0 0 0 0 0 0 0 0 0 0 0 0 0 0 0 0 0 0 0 0 0 0 0 0 0 0 0 0 0 0 0 0 0
-0 -0 0 0 -0 -2 0 0 0 0 -0 0 0 0 0 0 0 0 -0 0 0 0 0 0 0 0 0 0 0 0 0 0 0 0 0 0 0 0 0 0 0 0 0 0
-3 0 0 0 0 0 0 0 0 -0 -1 0 0 0 0 0 0 0 0 0 0 0 0 0 0 0 -0 -0 0 0 0 0 0 0 0 0 0 0 0 0 0 0 0 0
0 -0 0 -4 -0 0 0 0 -0 0 0 0 0 0 0 0 0 0 0 0 0 0 0 0 -0 0 0 0 0 0 0 0 0 0 0 0 0 0 0 0 0 0 0 0
0 0 0 0 -1 -0 0 0 0 0 -0 0 0 0 0 -0 0 0 -0 -0 0 0 0 0 0 0 0 0 0 0 0 0 0 0 0 0 0 0 0 0 0 0 0 0
0 0 -1 -20 -2 0 0 -1 -19 -3 -1 -0 -0 -0 0 -0 -0 0 0 0 0 0 0 0 0 0 0 0 0 0 0 0 0 0 0 0 0 0 0 0 0 -1 -2 0
-2 -5 -2 -9 0 0 -4 -14 -4 -1 -0 -1 0 -1 -1 0 -0 -0 -0 0 0 0 0 0 0 0 0 0 0 0 0 0 0 0 0 0 0 0 -0 -2 -6 0 0 0
0 0 0 -27 -2 -8 -15 0 0 -2 -1 -1 -1 -1 -0 -1 -3 -0 -0 0 0 0 0 -1 0 0 0 0 0 0 0 0 0 0 -0 -1 -1 -2 -6 0 0 0 0 0
-23 -18 -18 -17 -12 -9 -0 0 -0 0 -1 -1 -0 -0 0 -3 -3 -7 -6 -1 0 0 -0 0 0 0 -17 -14 -0 -2 -2 -2 -1 -3 -7 -23 0 0 0 0 0 0 0 0
-1 -1 -13 -25 -10 -0 -0 -20 0 0 -1 -1 -1 -1 -1 -1 -4 -6 0 0 -0 -2 -1 -3 0 0 0 -3 -2 -3 -7 -12 -3 0 0 0 0 0 0 0 0 0 -0 -1
-0 -5 -2 -0 0 0 -2 -2 -1 -1 -0 -0 -2 -3 -0 -0 0 -1 0 0 0 0 -3 -2 -0 0 0 0 -10 0 0 0 0 0 0 0 0 0 0 0 0 -0 -0 0
-0 -1 -0 -1 -1 -0 -1 -1 -2 -6 -4 -2 -4 -6 -1 -0 0 -0 0 0 -1 0 -6 0 -0 -6 -3 -7 0 0 0 0 0 0 0 0 0 0 0 0 -0 0 0 0
-0 -0 0 0 -1 -0 -0 -0 -0 -2 -1 -7 -9 -12 -6 -1 -6 -1 -0 -9 -1 -26 -1 -9 -0 -2 -1 0 0 0 0 0 0 0 0 0 0 0 0 0 0 -0 0 -0
Wind_Speed
42 39 39 37 35 32 33 37 46 31 29 53 58 67 70 56 70 62 51 49 49 50 50 51 46 47 39 28 32 36 34 32 45 39 37 34 31 31 31 35 30 29 33 29
53 52 46 38 35 36 37 42 43 30 34 57 59 60 64 63 72 70 66 48 54 50 51 53 51 48 36 24 28 33 27 31 37 38 34 29 36 34 34 31 31 34 30 32
60 56 40 31 35 38 40 41 43 33 39 43 51 55 64 71 65 73 72 58 46 54 50 45 49 47 37 34 28 23 25 27 35 34 31 27 33 32 30 31 35 33 32 25
66 58 49 28 36 44 42 40 41 37 39 41 46 48 56 68 72 72 63 73 64 54 44 48 46 44 35 32 26 25 25 33 29 32 26 28 33 35 34 36 34 33 33 35
63 49 46 30 36 49 44 38 37 35 27 33 32 41 55 64 66 58 75 66 67 65 46 47 45 43 42 41 32 30 31 31 29 30 34 31 31 37 36 34 37 43 39 39
53 42 34 9 44 51 39 31 25 28 25 28 29 34 44 56 66 66 70 61 64 66 56 43 40 41 38 36 38 37 37 31 29 38 34 33 40 37 41 37 36 36 38 33
45 33 25 32 48 31 24 22 24 24 25 22 32 27 29 51 61 68 59 63 64 57 47 43 44 43 40 40 42 41 40 34 30 31 25 40 44 20 21 30 33 32 35 31
42 23 26 34 33 15 16 13 18 20 21 22 19 19 25 44 57 65 67 58 54 54 49 43 41 43 41 42 41 41 44 37 39 40 39 40 42 25 20 22 39 32 33 26
32 27 17 31 6 9 12 13 14 14 16 24 22 21 15 29 51 54 62 62 51 50 47 47 49 47 44 42 40 37 40 39 40 39 45 48 40 30 20 19 42 18 20 18
32 26 10 7 14 6 10 12 11 12 17 16 17 23 30 27 36 51 52 60 65 52 55 53 46 46 40 48 50 46 41 42 46 41 43 42 27 14 13 26 30 19 15 16
33 16 14 12 27 22 16 23 18 18 21 19 15 16 15 19 22 33 38 48 59 58 57 54 48 41 38 38 43 49 47 43 43 37 43 49 17 17 26 24 18 15 13 10
31 26 17 16 19 31 29 21 24 21 23 20 23 26 24 23 31 31 31 36 48 55 56 41 42 36 33 36 43 36 46 43 41 42 41 24 18 21 17 14 14 13 10 7
32 27 27 22 27 31 37 31 18 16 21 26 27 27 23 23 31 31 40 43 40 46 50 46 33 40 29 35 37 32 33 30 31 29 31 24 21 16 13 11 11 9 8 7
28 25 21 18 23 27 29 35 30 26 22 23 29 25 28 29 34 39 43 50 48 46 44 52 41 37 32 35 30 31 29 21 23 26 21 19 21 17 14 11 8 6 7 7
26 25 17 19 21 20 19 17 24 29 27 23 24 26 27 30 37 44 45 46 53 41 46 47 44 32 28 27 25 28 23 27 30 32 23 24 20 15 13 12 11 9 9 10
27 23 15 11 4 8 7 23 29 21 27 26 26 24 26 28 25 26 27 33 30 39 34 45 44 35 25 30 33 28 22 18 21 23 18 15 14 14 12 12 11 10 11 10
24 21 16 10 7 14 25 22 18 3 13 24 26 23 19 19 16 18 20 25 24 29 33 39 34 42 41 37 35 23 17 20 21 15 14 18 17 16 12 11 10 9 9 10
16 12 12 9 10 12 17 15 11 14 8 17 23 22 20 17 16 14 16 19 23 27 26 23 34 36 34 37 32 28 23 18 19 16 14 14 12 11 10 8 8 9 10 8
18 17 17 15 13 12 12 11 16 17 18 20 21 25 23 16 15 15 14 17 18 26 28 21 23 29 40 33 24 23 18 17 12 11 8 10 10 9 8 8 8 9 9 7
16 15 16 15 13 11 10 16 17 16 18 20 19 16 19 15 18 16 15 15 18 25 22 20 19 19 14 18 17 11 9 10 12 12 13 11 10 9 8 6 5 6 7 9
17 17 17 16 12 14 18 19 19 18 20 18 18 14 10 13 15 15 15 14 14 22 23 24 24 23 18 14 13 12 8 8 9 8 8 7 7 7 6 4 5 7 8 10
19 20 20 18 18 19 19 20 20 20 20 16 12 10 12 12 14 15 15 16 16 20 14 20 24 19 15 11 11 11 9 10 10 8 7 7 5 5 4 4 5 7 8 10
14 16 17 18 18 20 20 21 21 19 17 13 9 9 10 13 13 14 16 18 17 7 18 18 15 6 7 5 6 6 6 8 7 6 5 4 4 3 3 4 6 8 10 11
16 17 19 19 19 20 20 21 16 15 10 7 7 9 13 12 13 14 14 13 13 21 22 20 10 7 5 5 5 6 6 6 7 7 7 8 7 5 4 6 7 8 10 12
12 18 17 19 20 21 20 19 13 8 4 3 7 11 12 12 13 13 12 15 17 19 20 13 5 2 4 5 4 4 5 6 6 6 7 6 6 5 6 7 9 10 13 15
12 14 14 18 16 14 14 8 7 6 5 6 10 11 13 14 12 14 15 14 16 15 12 3 2 3 4 5 6 7 6 5 5 5 4 5 6 8 8 9 12 13 14 16
13 12 14 19 12 12 10 9 10 9 9 11 11 13 13 12 14 13 13 14 10 7 5 4 1 3 3 2 2 3 4 4 4 4 4 5 6 8 10 11 13 15 17 18
Wind_Direction
314 303 294 278 262 245 234 237 241 236 211 231 237 236 234 239 234 235 241 245 241 239 233 232 238 242 244 256 230 237 237 253 252 258 265 233 234 237 239 259 267 262 272 279
316 309 298 278 252 236 231 234 237 230 214 234 237 237 238 242 234 234 235 245 242 245 238 237 237 241 247 250 240 240 228 250 251 257 258 255 231 238 238 243 262 264 264 277
319 314 301 258 228 213 220 226 228 232 225 231 237 236 236 236 237 237 236 237 244 242 240 236 234 238 243 243 251 239 232 251 242 248 257 250 244 244 247 244 250 258 260 272
324 296 273 251 222 202 205 220 229 223 212 219 230 235 237 235 237 234 237 233 239 243 235 230 235 234 237 240 233 241 236 244 247 248 260 264 252 251 250 242 245 252 264 269
327 301 287 243 210 187 203 214 224 212 221 210 225 236 238 236 237 232 229 233 230 235 240 232 229 227 232 234 233 231 234 243 240 239 248 257 264 260 253 249 253 262 267 272
324 316 312 113 161 169 202 216 221 203 219 198 217 226 238 238 234 236 232 234 230 236 238 242 240 234 234 242 231 232 232 236 234 246 252 259 263 256 259 262 260 262 263 270
331 350 23 103 136 164 201 200 207 212 218 216 201 215 228 241 235 235 234 232 234 236 243 256 250 238 245 245 236 228 225 226 241 250 251 257 268 276 242 253 266 265 268 274
340 20 92 116 130 194 193 214 209 235 236 228 247 215 210 246 239 235 235 234 238 237 238 244 244 236 238 239 234 228 229 234 246 248 254 267 267 268 266 266 270 268 268 270
336 347 115 124 210 201 215 228 238 236 242 254 247 243 233 254 239 237 237 238 237 236 237 239 232 232 229 232 228 236 228 237 246 252 257 258 269 276 268 275 273 274 262 266
333 46 10 208 226 231 237 249 252 251 251 279 258 261 257 259 248 239 238 235 230 234 233 237 239 240 222 224 221 220 222 237 246 253 258 265 275 278 250 264 285 290 275 266
332 298 108 139 234 237 253 249 255 254 260 265 269 277 276 258 260 246 242 232 227 230 231 235 232 245 224 230 222 221 233 239 244 251 254 258 243 249 258 280 298 302 291 287
314 293 198 155 166 241 240 255 253 264 263 274 270 266 267 272 255 256 250 242 230 226 226 240 233 242 233 223 230 226 239 244 249 246 252 264 235 261 269 285 289 296 301 313
315 296 232 169 180 188 209 240 262 272 271 271 274 273 275 273 259 260 254 248 239 232 227 232 244 239 240 233 234 226 245 245 253 246 252 242 244 254 268 274 286 297 306 301
317 314 250 156 169 178 184 216 238 247 258 265 256 261 260 267 264 260 251 247 243 241 229 231 242 246 245 240 243 234 248 234 242 254 245 235 248 247 253 269 277 287 296 296
318 324 281 266 157 155 158 264 256 236 233 228 229 241 271 292 281 252 245 240 231 232 227 227 233 247 248 244 244 236 241 242 243 255 238 260 240 236 245 249 258 272 284 292
324 327 342 309 301 121 102 246 237 261 254 237 242 264 277 293 282 251 236 229 232 225 231 231 234 239 249 239 242 251 245 244 257 268 235 255 236 236 237 245 258 274 283 288
344 356 357 353 299 256 220 228 272 297 279 259 245 246 257 279 274 240 232 234 236 227 237 236 238 238 246 254 254 245 248 251 262 264 239 253 233 231 234 244 260 272 281 289
285 306 330 308 256 259 251 278 311 268 289 285 256 259 261 273 266 263 260 242 235 234 234 251 243 241 247 255 254 249 253 256 260 240 250 240 218 220 226 241 253 266 278 283
276 255 270 282 270 271 275 327 280 264 275 274 276 244 247 283 261 260 278 266 248 240 240 255 249 249 247 244 246 244 236 250 228 210 200 190 210 220 228 243 254 267 267 276
284 306 287 284 296 328 325 288 271 282 275 269 281 302 266 284 262 267 268 273 249 235 247 263 259 258 246 231 233 221 222 206 208 210 216 217 224 225 227 227 230 257 276 290
299 285 288 307 328 298 282 269 267 270 273 282 283 294 300 307 263 268 279 273 274 247 248 246 244 240 239 234 232 228 210 206 214 224 219 211 214 212 204 218 256 279 292 301
279 276 276 279 283 280 269 267 274 273 278 296 293 292 297 291 294 282 280 271 273 255 260 254 245 236 245 239 241 244 228 213 219 215 217 217 203 218 236 253 277 300 311 318
306 303 295 286 289 276 274 267 268 277 290 292 280 290 282 283 293 284 284 273 275 285 259 253 258 221 243 236 219 223 206 208 211 206 205 211 235 260 262 285 304 311 316 321
321 304 291 284 284 285 286 284 293 302 297 279 285 286 288 302 288 292 293 298 284 258 252 258 251 248 202 202 212 207 219 214 209 216 228 237 241 256 301 317 322 321 320 323
33 315 311 299 294 290 288 288 309 329 350 328 293 298 295 292 292 305 304 285 280 273 267 274 256 218 192 203 210 205 219 226 234 232 231 243 258 285 307 321 320 324 315 316
68 8 355 311 315 308 302 309 310 344 351 309 299 299 289 291 295 295 293 289 286 290 297 297 227 200 208 227 239 244 242 235 239 245 252 268 282 295 306 315 312 308 314 315
91 89 341 277 5 343 307 309 301 300 298 294 299 294 292 302 293 295 306 302 319 349 349 332 210 183 195 213 233 225 227 233 236 242 262 281 297 301 302 305 309 311 312 313